Time,TemperatureF,DewpointF,PressureIn,WindDirection,WindDirectionDegrees,WindSpeedMPH,WindSpeedGustMPH,Humidity,HourlyPrecipIn,Conditions,Clouds,dailyrainin,SoftwareType,DateUTC
2013-06-23 00:11:00,86.0,69.0,29.90,NNE,33,0.0,6.0,57,0.00,,,0.00,,2013-06-23 05:11:00,
2013-06-23 00:22:00,84.0,70.0,29.91,NE,49,1.0,8.0,64,0.00,,,0.00,,2013-06-23 05:22:00,
2013-06-23 00:32:00,84.0,70.0,29.91,NE,49,1.0,8.0,64,0.00,,,0.00,,2013-06-23 05:32:00,
2013-06-23 00:41:00,84.0,70.0,29.91,South,172,0.0,7.0,64,0.00,,,0.00,,2013-06-23 05:41:00,
2013-06-23 00:51:00,84.0,71.0,29.91,SW,224,1.0,7.0,65,0.00,,,0.00,,2013-06-23 05:51:00,
2013-06-23 01:02:00,83.0,70.0,29.91,ESE,116,0.0,5.0,66,0.00,,,0.00,,2013-06-23 06:02:00,
2013-06-23 01:12:00,83.0,70.0,29.91,ESE,116,0.0,5.0,66,0.00,,,0.00,,2013-06-23 06:12:00,
2013-06-23 01:22:00,83.0,71.0,29.91,East,90,1.0,4.0,67,0.00,,,0.00,,2013-06-23 06:22:00,
2013-06-23 01:33:00,83.0,71.0,29.90,North,6,2.0,7.0,68,0.00,,,0.00,,2013-06-23 06:33:00,
2013-06-23 01:43:00,83.0,71.0,29.90,North,6,2.0,7.0,68,0.00,,,0.00,,2013-06-23 06:43:00,
2013-06-23 01:52:00,82.0,70.0,29.90,NE,37,1.0,7.0,68,0.00,,,0.00,,2013-06-23 06:52:00,
2013-06-23 02:02:00,82.0,70.0,29.90,SSE,150,2.0,10.0,68,0.00,,,0.00,,2013-06-23 07:02:00,
2013-06-23 02:12:00,82.0,70.0,29.90,SSE,150,2.0,10.0,68,0.00,,,0.00,,2013-06-23 07:12:00,
2013-06-23 02:22:00,82.0,71.0,29.90,WSW,242,0.0,7.0,69,0.00,,,0.00,,2013-06-23 07:22:00,
2013-06-23 02:34:00,82.0,71.0,29.90,East,80,1.0,10.0,69,0.00,,,0.00,,2013-06-23 07:34:00,
2013-06-23 02:43:00,82.0,71.0,29.90,East,80,1.0,10.0,69,0.00,,,0.00,,2013-06-23 07:43:00,
2013-06-23 02:53:00,81.0,70.0,29.90,NNE,13,0.0,8.0,70,0.00,,,0.00,,2013-06-23 07:53:00,
2013-06-23 03:02:00,81.0,70.0,29.90,SE,142,0.0,7.0,70,0.00,,,0.00,,2013-06-23 08:02:00,
2013-06-23 03:11:00,81.0,70.0,29.90,SE,142,0.0,7.0,70,0.00,,,0.00,,2013-06-23 08:11:00,
2013-06-23 03:22:00,81.0,71.0,29.90,WSW,249,1.0,7.0,71,0.00,,,0.00,,2013-06-23 08:22:00,
2013-06-23 03:33:00,81.0,71.0,29.89,SE,143,1.0,9.0,71,0.00,,,0.00,,2013-06-23 08:33:00,
2013-06-23 03:42:00,81.0,71.0,29.89,SE,143,1.0,9.0,71,0.00,,,0.00,,2013-06-23 08:42:00,
2013-06-23 03:53:00,81.0,71.0,29.90,SSE,162,3.0,9.0,71,0.00,,,0.00,,2013-06-23 08:53:00,
2013-06-23 04:02:00,81.0,71.0,29.90,ESE,108,0.0,6.0,72,0.00,,,0.00,,2013-06-23 09:02:00,
2013-06-23 04:12:00,81.0,71.0,29.90,ESE,108,0.0,6.0,72,0.00,,,0.00,,2013-06-23 09:12:00,
2013-06-23 04:22:00,80.0,71.0,29.90,SSW,210,1.0,5.0,73,0.00,,,0.00,,2013-06-23 09:22:00,
2013-06-23 04:34:00,80.0,71.0,29.90,SSW,193,0.0,5.0,74,0.00,,,0.00,,2013-06-23 09:34:00,
2013-06-23 04:43:00,80.0,71.0,29.90,SSW,193,0.0,5.0,74,0.00,,,0.00,,2013-06-23 09:43:00,
2013-06-23 04:54:00,80.0,71.0,29.91,SSE,160,1.0,6.0,75,0.00,,,0.00,,2013-06-23 09:54:00,
2013-06-23 05:02:00,79.0,71.0,29.91,ENE,61,0.0,8.0,76,0.00,,,0.00,,2013-06-23 10:02:00,
2013-06-23 05:11:00,79.0,71.0,29.91,ENE,61,0.0,8.0,76,0.00,,,0.00,,2013-06-23 10:11:00,
2013-06-23 05:22:00,79.0,71.0,29.91,NNW,329,0.0,5.0,77,0.00,,,0.00,,2013-06-23 10:22:00,
2013-06-23 05:34:00,78.0,71.0,29.91,NE,44,0.0,4.0,78,0.00,,,0.00,,2013-06-23 10:34:00,
2013-06-23 05:43:00,78.0,71.0,29.91,NE,44,0.0,4.0,78,0.00,,,0.00,,2013-06-23 10:43:00,
2013-06-23 05:53:00,78.0,71.0,29.91,SSE,160,0.0,5.0,79,0.00,,,0.00,,2013-06-23 10:53:00,
2013-06-23 06:01:00,78.0,71.0,29.91,WNW,292,0.0,4.0,79,0.00,,,0.00,,2013-06-23 11:01:00,
2013-06-23 06:11:00,78.0,71.0,29.91,WNW,292,0.0,4.0,79,0.00,,,0.00,,2013-06-23 11:11:00,
2013-06-23 06:22:00,78.0,71.0,29.92,WSW,248,0.0,3.0,80,0.00,,,0.00,,2013-06-23 11:22:00,
2013-06-23 06:33:00,77.0,71.0,29.92,WSW,250,0.0,7.0,81,0.00,,,0.00,,2013-06-23 11:33:00,
2013-06-23 06:43:00,77.0,71.0,29.92,WSW,250,0.0,7.0,81,0.00,,,0.00,,2013-06-23 11:43:00,
2013-06-23 06:53:00,78.0,71.0,29.93,South,181,1.0,8.0,80,0.00,,,0.00,,2013-06-23 11:53:00,
2013-06-23 07:01:00,78.0,72.0,29.93,SE,129,1.0,8.0,81,0.00,,,0.00,,2013-06-23 12:01:00,
2013-06-23 07:12:00,78.0,72.0,29.93,SE,129,1.0,8.0,81,0.00,,,0.00,,2013-06-23 12:12:00,
2013-06-23 07:22:00,78.0,72.0,29.93,SSE,150,2.0,7.0,81,0.00,,,0.00,,2013-06-23 12:22:00,
2013-06-23 07:33:00,79.0,72.0,29.93,NE,51,1.0,8.0,79,0.00,,,0.00,,2013-06-23 12:33:00,
2013-06-23 07:42:00,79.0,72.0,29.93,NE,51,1.0,8.0,79,0.00,,,0.00,,2013-06-23 12:42:00,
2013-06-23 07:53:00,79.0,72.0,29.94,SSW,212,1.0,6.0,78,0.00,,,0.00,,2013-06-23 12:53:00,
2013-06-23 08:01:00,80.0,72.0,29.94,NNE,31,1.0,8.0,77,0.00,,,0.00,,2013-06-23 13:01:00,
2013-06-23 08:11:00,80.0,72.0,29.94,NNE,31,1.0,8.0,77,0.00,,,0.00,,2013-06-23 13:11:00,
2013-06-23 08:23:00,80.0,72.0,29.95,SE,137,1.0,7.0,76,0.00,,,0.00,,2013-06-23 13:23:00,
2013-06-23 08:34:00,80.0,72.0,29.96,WSW,246,3.0,10.0,76,0.00,,,0.00,,2013-06-23 13:34:00,
2013-06-23 08:43:00,80.0,72.0,29.96,WSW,246,3.0,10.0,76,0.00,,,0.00,,2013-06-23 13:43:00,
2013-06-23 08:54:00,81.0,73.0,29.96,SE,136,1.0,8.0,76,0.00,,,0.00,,2013-06-23 13:54:00,
2013-06-23 09:04:00,81.0,72.0,29.96,WSW,240,1.0,9.0,75,0.00,,,0.00,,2013-06-23 14:04:00,
2013-06-23 09:11:00,81.0,72.0,29.96,WSW,240,1.0,9.0,75,0.00,,,0.00,,2013-06-23 14:11:00,
2013-06-23 09:22:00,82.0,72.0,29.96,WNW,295,1.0,8.0,73,0.00,,,0.00,,2013-06-23 14:22:00,
2013-06-23 09:34:00,83.0,73.0,29.96,East,86,2.0,9.0,72,0.00,,,0.00,,2013-06-23 14:34:00,
2013-06-23 09:44:00,83.0,73.0,29.96,East,86,2.0,9.0,72,0.00,,,0.00,,2013-06-23 14:44:00,
2013-06-23 09:52:00,83.0,72.0,29.97,NE,43,2.0,8.0,70,0.00,,,0.00,,2013-06-23 14:52:00,
2013-06-23 10:05:00,83.0,72.0,29.97,SW,216,2.0,9.0,70,0.00,,,0.00,,2013-06-23 15:05:00,
2013-06-23 10:11:00,83.0,72.0,29.97,SW,216,2.0,9.0,70,0.00,,,0.00,,2013-06-23 15:11:00,
2013-06-23 10:22:00,84.0,72.0,29.97,NNE,18,2.0,9.0,68,0.00,,,0.00,,2013-06-23 15:22:00,
2013-06-23 10:35:00,84.0,72.0,29.97,ESE,105,3.0,11.0,67,0.00,,,0.00,,2013-06-23 15:35:00,
2013-06-23 10:43:00,84.0,72.0,29.97,ESE,105,3.0,11.0,67,0.00,,,0.00,,2013-06-23 15:43:00,
2013-06-23 10:52:00,85.0,73.0,29.97,South,191,1.0,8.0,67,0.00,,,0.00,,2013-06-23 15:52:00,
2013-06-23 11:06:00,85.0,73.0,29.97,South,191,1.0,8.0,67,0.00,,,0.00,,2013-06-23 16:06:00,
2013-06-23 11:11:00,87.0,73.0,29.97,NNE,33,1.0,6.0,64,0.00,,,0.00,,2013-06-23 16:11:00,
2013-06-23 11:22:00,87.0,73.0,29.97,NE,49,1.0,8.0,64,0.00,,,0.00,,2013-06-23 16:22:00,
2013-06-23 11:36:00,87.0,73.0,29.97,NE,49,1.0,8.0,64,0.00,,,0.00,,2013-06-23 16:36:00,
2013-06-23 11:42:00,87.0,72.0,29.97,SE,143,3.0,9.0,62,0.00,,,0.00,,2013-06-23 16:42:00,
2013-06-23 11:53:00,88.0,73.0,29.97,NNE,33,2.0,10.0,61,0.00,,,0.00,,2013-06-23 16:53:00,
2013-06-23 12:03:00,88.0,73.0,29.97,NNE,33,2.0,10.0,61,0.00,,,0.00,,2013-06-23 17:03:00,
2013-06-23 12:11:00,89.0,73.0,29.96,SSE,156,2.0,9.0,60,0.00,,,0.00,,2013-06-23 17:11:00,
2013-06-23 12:22:00,89.0,73.0,29.95,NNW,345,2.0,11.0,59,0.00,,,0.00,,2013-06-23 17:22:00,
2013-06-23 12:33:00,89.0,73.0,29.95,NNW,345,2.0,11.0,59,0.00,,,0.00,,2013-06-23 17:33:00,
2013-06-23 12:43:00,90.0,72.0,29.95,ESE,117,3.0,9.0,56,0.00,,,0.00,,2013-06-23 17:43:00,
2013-06-23 12:52:00,89.0,71.0,29.94,South,181,0.0,12.0,56,0.00,,,0.00,,2013-06-23 17:52:00,
2013-06-23 13:01:00,89.0,71.0,29.94,South,181,0.0,12.0,56,0.00,,,0.00,,2013-06-23 18:01:00,
2013-06-23 13:11:00,91.0,72.0,29.94,NW,306,1.0,9.0,54,0.00,,,0.00,,2013-06-23 18:11:00,
2013-06-23 13:22:00,91.0,71.0,29.93,SSW,201,1.0,9.0,53,0.00,,,0.00,,2013-06-23 18:22:00,
2013-06-23 13:34:00,91.0,71.0,29.93,SSW,201,1.0,9.0,53,0.00,,,0.00,,2013-06-23 18:34:00,
2013-06-23 13:42:00,91.0,71.0,29.92,SSW,195,4.0,11.0,52,0.00,,,0.00,,2013-06-23 18:42:00,
2013-06-23 13:53:00,92.0,71.0,29.92,SE,146,6.0,15.0,50,0.00,,,0.00,,2013-06-23 18:53:00,
2013-06-23 14:01:00,92.0,71.0,29.92,SE,146,6.0,15.0,50,0.00,,,0.00,,2013-06-23 19:01:00,
2013-06-23 14:11:00,92.0,71.0,29.92,WNW,284,2.0,10.0,51,0.00,,,0.00,,2013-06-23 19:11:00,
2013-06-23 14:21:00,92.0,71.0,29.91,ESE,114,2.0,12.0,50,0.00,,,0.00,,2013-06-23 19:21:00,
2013-06-23 14:32:00,92.0,71.0,29.91,ESE,114,2.0,12.0,50,0.00,,,0.00,,2013-06-23 19:32:00,
2013-06-23 14:43:00,92.0,70.0,29.91,East,93,2.0,9.0,49,0.00,,,0.00,,2013-06-23 19:43:00,
2013-06-23 14:53:00,93.0,70.0,29.91,ENE,71,4.0,11.0,47,0.00,,,0.00,,2013-06-23 19:53:00,
2013-06-23 15:02:00,93.0,70.0,29.91,ENE,71,4.0,11.0,47,0.00,,,0.00,,2013-06-23 20:02:00,
2013-06-23 15:12:00,93.0,70.0,29.90,WNW,300,2.0,7.0,47,0.00,,,0.00,,2013-06-23 20:12:00,
2013-06-23 15:23:00,94.0,70.0,29.90,ENE,70,2.0,12.0,46,0.00,,,0.00,,2013-06-23 20:23:00,
2013-06-23 15:33:00,94.0,70.0,29.90,ENE,70,2.0,12.0,46,0.00,,,0.00,,2013-06-23 20:33:00,
2013-06-23 15:42:00,93.0,68.0,29.89,SW,221,2.0,11.0,45,0.00,,,0.00,,2013-06-23 20:42:00,
2013-06-23 15:52:00,93.0,70.0,29.89,NE,51,2.0,12.0,47,0.00,,,0.00,,2013-06-23 20:52:00,
2013-06-23 16:01:00,93.0,70.0,29.89,NE,51,2.0,12.0,47,0.00,,,0.00,,2013-06-23 21:01:00,
2013-06-23 16:11:00,93.0,69.0,29.88,SSW,207,3.0,11.0,46,0.00,,,0.00,,2013-06-23 21:11:00,
2013-06-23 16:22:00,95.0,71.0,29.88,SE,143,1.0,6.0,46,0.00,,,0.00,,2013-06-23 21:22:00,
2013-06-23 16:33:00,95.0,71.0,29.88,SE,143,1.0,6.0,46,0.00,,,0.00,,2013-06-23 21:33:00,
2013-06-23 16:44:00,95.0,69.0,29.88,WNW,283,3.0,11.0,43,0.00,,,0.00,,2013-06-23 21:44:00,
2013-06-23 16:52:00,94.0,69.0,29.88,NE,51,1.0,11.0,45,0.00,,,0.00,,2013-06-23 21:52:00,
2013-06-23 17:01:00,94.0,69.0,29.88,NE,51,1.0,11.0,45,0.00,,,0.00,,2013-06-23 22:01:00,
2013-06-23 17:11:00,94.0,69.0,29.88,NE,51,3.0,9.0,44,0.00,,,0.00,,2013-06-23 22:11:00,
2013-06-23 17:22:00,94.0,69.0,29.87,ENE,63,1.0,7.0,45,0.00,,,0.00,,2013-06-23 22:22:00,
2013-06-23 17:32:00,94.0,69.0,29.87,ENE,63,1.0,7.0,45,0.00,,,0.00,,2013-06-23 22:32:00,
2013-06-23 17:43:00,94.0,69.0,29.87,ESE,122,1.0,11.0,45,0.00,,,0.00,,2013-06-23 22:43:00,
2013-06-23 17:53:00,95.0,69.0,29.86,West,280,0.0,7.0,43,0.00,,,0.00,,2013-06-23 22:53:00,
2013-06-23 18:01:00,95.0,69.0,29.86,West,280,0.0,7.0,43,0.00,,,0.00,,2013-06-23 23:01:00,
2013-06-23 18:11:00,94.0,67.0,29.86,SSW,195,1.0,10.0,42,0.00,,,0.00,,2013-06-23 23:11:00,
2013-06-23 18:22:00,95.0,68.0,29.86,SSW,211,1.0,8.0,42,0.00,,,0.00,,2013-06-23 23:22:00,
2013-06-23 18:33:00,95.0,68.0,29.86,SSW,211,1.0,8.0,42,0.00,,,0.00,,2013-06-23 23:33:00,
2013-06-23 18:44:00,94.0,68.0,29.86,North,352,1.0,4.0,43,0.00,,,0.00,,2013-06-23 23:44:00,
2013-06-23 18:52:00,94.0,68.0,29.86,East,86,0.0,5.0,43,0.00,,,0.00,,2013-06-23 23:52:00,
2013-06-23 19:01:00,94.0,68.0,29.86,East,86,0.0,5.0,43,0.00,,,0.00,,2013-06-24 00:01:00,
2013-06-23 19:11:00,93.0,66.0,29.86,ENE,77,2.0,9.0,42,0.00,,,0.00,,2013-06-24 00:11:00,
2013-06-23 19:22:00,93.0,68.0,29.86,East,89,1.0,8.0,44,0.00,,,0.00,,2013-06-24 00:22:00,
2013-06-23 19:33:00,93.0,68.0,29.86,East,89,1.0,8.0,44,0.00,,,0.00,,2013-06-24 00:33:00,
2013-06-23 19:42:00,92.0,66.0,29.86,SE,130,1.0,9.0,43,0.00,,,0.00,,2013-06-24 00:42:00,
2013-06-23 19:52:00,92.0,68.0,29.86,SSW,197,0.0,3.0,46,0.00,,,0.00,,2013-06-24 00:52:00,
2013-06-23 20:01:00,92.0,68.0,29.86,SSW,197,0.0,3.0,46,0.00,,,0.00,,2013-06-24 01:01:00,
2013-06-23 20:11:00,91.0,67.0,29.86,ENE,75,0.0,5.0,45,0.00,,,0.00,,2013-06-24 01:11:00,
2013-06-23 20:22:00,90.0,66.0,29.86,NNE,24,0.0,3.0,46,0.00,,,0.00,,2013-06-24 01:22:00,
2013-06-23 20:32:00,90.0,66.0,29.86,NNE,24,0.0,3.0,46,0.00,,,0.00,,2013-06-24 01:32:00,
2013-06-23 20:42:00,90.0,67.0,29.86,East,79,0.0,3.0,47,0.00,,,0.00,,2013-06-24 01:42:00,
2013-06-23 20:52:00,89.0,67.0,29.86,ENE,63,0.0,2.0,49,0.00,,,0.00,,2013-06-24 01:52:00,
2013-06-23 21:02:00,89.0,67.0,29.86,ENE,63,0.0,2.0,49,0.00,,,0.00,,2013-06-24 02:02:00,
2013-06-23 21:11:00,88.0,67.0,29.86,ENE,68,1.0,4.0,50,0.00,,,0.00,,2013-06-24 02:11:00,
2013-06-23 21:22:00,88.0,67.0,29.86,SE,124,0.0,2.0,50,0.00,,,0.00,,2013-06-24 02:22:00,
2013-06-23 21:33:00,88.0,67.0,29.86,SE,124,0.0,2.0,50,0.00,,,0.00,,2013-06-24 02:33:00,
2013-06-23 21:42:00,88.0,68.0,29.87,NNE,27,0.0,3.0,51,0.00,,,0.00,,2013-06-24 02:42:00,
2013-06-23 21:53:00,87.0,67.0,29.88,SSE,162,0.0,4.0,51,0.00,,,0.00,,2013-06-24 02:53:00,
2013-06-23 22:01:00,87.0,67.0,29.88,SSE,162,0.0,4.0,51,0.00,,,0.00,,2013-06-24 03:01:00,
2013-06-23 22:11:00,87.0,67.0,29.88,South,174,0.0,4.0,51,0.00,,,0.00,,2013-06-24 03:11:00,
2013-06-23 22:22:00,87.0,67.0,29.89,ENE,75,0.0,5.0,51,0.00,,,0.00,,2013-06-24 03:22:00,
2013-06-23 22:33:00,87.0,67.0,29.89,ENE,75,0.0,5.0,51,0.00,,,0.00,,2013-06-24 03:33:00,
2013-06-23 22:43:00,86.0,66.0,29.89,North,355,1.0,4.0,51,0.00,,,0.00,,2013-06-24 03:43:00,
2013-06-23 22:53:00,86.0,66.0,29.90,SE,126,1.0,5.0,52,0.00,,,0.00,,2013-06-24 03:53:00,
2013-06-23 23:02:00,86.0,66.0,29.90,SE,126,1.0,5.0,52,0.00,,,0.00,,2013-06-24 04:02:00,
2013-06-23 23:12:00,86.0,67.0,29.91,NNW,348,1.0,4.0,54,0.00,,,0.00,,2013-06-24 04:12:00,
2013-06-23 23:22:00,86.0,68.0,29.91,NE,44,1.0,6.0,56,0.00,,,0.00,,2013-06-24 04:22:00,
2013-06-23 23:33:00,86.0,68.0,29.91,NE,44,1.0,6.0,56,0.00,,,0.00,,2013-06-24 04:33:00,
2013-06-23 23:43:00,85.0,69.0,29.91,SW,216,1.0,7.0,59,0.00,,,0.00,,2013-06-24 04:43:00,